[[{"header":{"parameterUnit":"m.s-1","parameterCategory":1,"la1":30.2991,"la2":30.254,"lo1":-89.0895,"lo2":-89.0444,"dy":0.0017,"dx":0.0017,"nx":28,"ny":28,"refTime":"2024-08-02T21:00:00:Z","depth":0,"parameterNumber":2,"parameterNumberName":"U-component_of_WINDS"},"data":[0,0,0,0,0,0,0,0,0,0,0,0,0,0,0,0,0,0,0,0,0,0,0,0,0,0,0,0,0,0,0,0,0,0,0,0,0,0,0,0,0,0,0,0,0,0,0,0,0,0,0,0,0,0,0,0,0,0,-0.7663,-0.7664,0,-0.7782,-0.7783,-0.7784,-0.7853,-0.7854,-0.7854,-0.7854,-0.7983,-0.7986,-0.7989,0,0,0,0,0,0,0,0,0,0,0,0,0,-0.7502,-0.7505,-0.7663,-0.7664,-0.7666,-0.7782,-0.7783,-0.7785,-0.7853,-0.7854,-0.7854,-0.7854,-0.7982,-0.7985,-0.7989,0,0,0,0,0,0,0,0,0,0,0,0,0,-0.7592,-0.7505,-0.7663,-0.7714,-0.772,-0.7781,-0.7783,-0.7785,-0.7853,-0.7854,-0.7854,-0.7854,-0.798,-0.7985,-0.799,-0.8012,0,0,-0.8004,-0.8006,0,0,0,0,0,0,0,0,-0.7586,-0.7597,-0.7705,-0.771,-0.7717,-0.7803,-0.7774,-0.7861,-0.7853,-0.7803,-0.7854,-0.7855,-0.7923,-0.7933,-0.7954,-0.8018,-0.8023,-0.8005,-0.8008,-0.801,-0.8011,0,0,0,0,0,0,0,-0.758,-0.7593,-0.771,-0.7706,-0.7714,-0.7733,-0.7746,-0.7791,-0.786,-0.7807,-0.7812,-0.7825,-0.7927,-0.7949,-0.7958,-0.8025,-0.8005,-0.8009,-0.8012,-0.8014,-0.8114,-0.8114,0,0,0,0,0,0,-0.7565,-0.7587,-0.7706,-0.7714,-0.7651,-0.7736,-0.775,-0.7775,-0.7859,-0.7872,-0.7825,-0.7828,-0.7941,-0.7952,-0.7963,-0.7994,-0.801,-0.8014,-0.8017,-0.8114,-0.8114,-0.8113,0,0,0,0,0,0,-0.7561,-0.7575,-0.7702,-0.7652,-0.7669,-0.7738,-0.7765,-0.7777,-0.78,-0.7872,-0.7886,-0.7835,-0.7942,-0.7956,-0.7999,-0.8,-0.8016,-0.8021,-0.8114,-0.8114,-0.8114,-0.8057,0,0,0,0,0,0,-0.7556,-0.7573,-0.758,-0.7651,-0.7672,-0.7733,-0.7765,-0.7779,-0.7807,-0.7813,-0.7886,-0.7898,-0.7943,-0.7991,-0.8003,-0.8007,-0.8024,-0.8114,-0.8114,-0.8114,-0.8059,-0.8055,-0.8051,0,0,0,0,0,-0.755,-0.7561,-0.758,-0.7595,-0.7682,-0.7733,-0.7745,-0.7795,-0.7807,-0.7816,-0.7863,-0.7896,-0.7997,-0.7995,-0.8009,-0.8014,-0.8115,-0.8114,-0.8114,-0.8061,-0.8056,-0.8052,0,0,0,0,0,0,-0.7491,-0.7572,-0.7594,-0.7628,-0.7673,-0.7745,-0.7758,-0.7788,-0.7832,-0.7836,-0.7898,-0.7913,-0.795,-0.7987,-0.7983,-0.804,-0.806,-0.8062,-0.8015,-0.8011,-0.8007,-0.7998,-0.8028,0,0,0,0,0,-0.7482,-0.7514,-0.7584,-0.7607,-0.7628,-0.7689,-0.7713,-0.7747,-0.7798,-0.7818,-0.7867,-0.7917,-0.796,-0.7987,-0.8031,-0.8065,-0.8083,-0.8075,-0.8071,-0.8068,-0.8069,-0.8091,-0.8089,-0.8112,-0.8112,-0.8112,0,0,-0.7464,-0.7511,-0.7529,-0.7597,-0.7636,-0.767,-0.7705,-0.774,-0.7767,-0.7824,-0.7867,-0.7905,-0.7964,-0.8003,-0.8022,-0.8034,-0.8067,-0.8067,-0.8063,-0.8067,-0.809,-0.8088,-0.8086,-0.8112,-0.8112,-0.8112,0,0,-0.7448,-0.7486,-0.751,-0.7548,-0.7606,-0.7646,-0.7651,-0.7719,-0.7746,-0.7789,-0.7833,-0.7867,-0.794,-0.798,-0.801,-0.8009,-0.8042,-0.8022,-0.8001,-0.8022,-0.802,-0.8018,-0.8019,-0.8018,-0.8023,-0.8023,-0.8023,0,-0.7418,-0.747,-0.7519,-0.7551,-0.7581,-0.7631,-0.7657,-0.7692,-0.7762,-0.7782,-0.7794,-0.7886,-0.793,-0.7979,-0.7978,-0.8001,-0.8011,-0.8014,-0.8015,-0.8015,-0.8014,-0.8015,-0.8015,-0.802,-0.8021,-0.8021,-0.8021,0,-0.7431,-0.7466,-0.7479,-0.7542,-0.7573,-0.7602,-0.7658,-0.7683,-0.7715,-0.7754,-0.7798,-0.7852,-0.7908,-0.7922,-0.7954,-0.7976,-0.7981,-0.8003,-0.8025,-0.8008,-0.8011,-0.8011,-0.8016,-0.8017,-0.8018,-0.8019,0,0,-0.7383,-0.7472,-0.7476,-0.7505,-0.7572,-0.7602,-0.7634,-0.7685,-0.7706,-0.7753,-0.7783,-0.7842,-0.7863,-0.7897,-0.7934,-0.7952,-0.7948,-0.7972,-0.7975,-0.7966,-0.7977,-0.796,-0.7959,-0.797,-0.797,-0.797,-0.7972,0,-0.7377,-0.7434,-0.7479,-0.752,-0.7554,-0.7602,-0.763,-0.7676,-0.7713,-0.7749,-0.7792,-0.7833,-0.7857,-0.7878,-0.7897,-0.7944,-0.7951,-0.7945,-0.8,-0.8001,-0.7983,-0.796,-0.7943,-0.7942,-0.7973,-0.7973,-0.7973,0,-0.7379,-0.742,-0.7463,-0.7527,-0.7543,-0.7567,-0.7618,-0.7651,-0.7704,-0.773,-0.7767,-0.7806,-0.7844,-0.786,-0.7914,-0.7909,-0.7934,-0.796,-0.7962,-0.7969,-0.7986,-0.7968,-0.7943,-0.7942,-0.7975,-0.7975,-0.7975,0,-0.7339,-0.7407,-0.7442,-0.7465,-0.754,-0.7556,-0.7588,-0.7641,-0.7669,-0.7715,-0.7734,-0.7784,-0.7812,-0.7851,-0.7903,-0.791,-0.7952,-0.7973,-0.7976,-0.7975,-0.7984,-0.7983,-0.7962,-0.7999,-0.7998,-0.7998,-0.7998,0,-0.7329,-0.7354,-0.7425,-0.7446,-0.7476,-0.7529,-0.7557,-0.7594,-0.7641,-0.7672,-0.7718,-0.7746,-0.7812,-0.7849,-0.789,-0.7929,-0.7941,-0.7965,-0.7976,-0.7961,-0.7958,-0.7979,-0.7981,-0.7999,-0.7999,-0.7999,-0.7999,0,-0.7291,-0.7339,-0.738,-0.7446,-0.7464,-0.7483,-0.7541,-0.7565,-0.7604,-0.7643,-0.7655,-0.7718,-0.7764,-0.7819,-0.7884,-0.7911,-0.7947,-0.7962,-0.7928,-0.7934,-0.7935,-0.7934,-0.7928,-0.793,-0.7964,-0.7963,-0.7963,0,-0.7281,-0.7301,-0.7369,-0.7391,-0.7421,-0.7458,-0.7486,-0.754,-0.7568,-0.7629,-0.7646,-0.7694,-0.7736,-0.7808,-0.7861,-0.7911,-0.7929,-0.7923,-0.7937,-0.7922,-0.793,-0.7928,-0.7931,-0.792,-0.7919,-0.7919,-0.7918,0,-0.726,-0.7282,-0.732,-0.7366,-0.7398,-0.7437,-0.7479,-0.7496,-0.7558,-0.7588,-0.7634,-0.7666,-0.773,-0.7779,-0.7835,-0.7872,-0.7906,-0.7913,-0.7917,-0.7903,-0.7882,-0.7894,-0.7918,-0.7913,-0.7914,-0.7914,-0.7914,-0.7915,-0.7236,-0.7256,-0.7306,-0.7347,-0.7383,-0.7421,-0.7446,-0.7488,-0.7526,-0.7581,-0.7611,-0.7657,-0.771,-0.7789,-0.7824,-0.7862,-0.7874,-0.7879,-0.788,-0.7881,-0.7877,-0.7875,-0.7872,-0.7873,-0.7873,-0.7873,-0.7873,0,-0.7218,-0.7252,-0.7288,-0.7344,-0.7376,-0.7402,-0.745,-0.7476,-0.7514,-0.756,-0.76,-0.7653,-0.77,-0.7756,-0.7808,-0.7828,-0.7845,-0.7839,-0.7839,-0.7847,-0.7863,-0.7855,-0.7825,-0.7825,-0.7825,-0.7825,-0.7825,-0.7825,-0.7211,-0.7246,-0.7274,-0.7328,-0.7364,-0.7406,-0.7431,-0.7467,-0.7503,-0.756,-0.7598,-0.7633,-0.7684,-0.7739,-0.7784,-0.78,-0.7817,-0.7807,-0.7827,-0.7842,-0.7846,-0.785,-0.7842,-0.781,-0.781,-0.7808,-0.7808,-0.7808]},{"header":{"parameterUnit":"m.s-1","parameterCategory":1,"la1":30.2991,"la2":30.254,"lo1":-89.0895,"lo2":-89.0444,"dy":0.0017,"dx":0.0017,"nx":28,"ny":28,"refTime":"2024-08-02T21:00:00:Z","depth":0,"parameterNumber":3,"parameterNumberName":"V-component_of_WINDS"},"data":[0,0,0,0,0,0,0,0,0,0,0,0,0,0,0,0,0,0,0,0,0,0,0,0,0,0,0,0,0,0,0,0,0,0,0,0,0,0,0,0,0,0,0,0,0,0,0,0,0,0,0,0,0,0,0,0,0,0,5.3437,5.3437,0,5.34,5.34,5.3399,5.3316,5.3314,5.3312,5.331,5.3275,5.3276,5.3277,0,0,0,0,0,0,0,0,0,0,0,0,0,5.3439,5.3439,5.3437,5.3437,5.3436,5.34,5.34,5.3399,5.3316,5.3314,5.3312,5.331,5.3275,5.3276,5.3277,0,0,0,0,0,0,0,0,0,0,0,0,0,5.3424,5.344,5.3437,5.339,5.3386,5.34,5.34,5.3399,5.3316,5.3314,5.3311,5.3309,5.3275,5.3276,5.3277,5.3335,0,0,5.328,5.328,0,0,0,0,0,0,0,0,5.3425,5.3424,5.3398,5.3394,5.3388,5.336,5.3387,5.3378,5.3317,5.3343,5.331,5.3307,5.3306,5.3304,5.3303,5.3333,5.3332,5.328,5.3281,5.3281,5.3281,0,0,0,0,0,0,0,5.3426,5.3425,5.3423,5.3397,5.3392,5.3372,5.3367,5.3385,5.3339,5.334,5.3334,5.3331,5.3303,5.3302,5.3301,5.3331,5.328,5.3281,5.3281,5.3282,5.3408,5.341,0,0,0,0,0,0,5.3433,5.3427,5.3424,5.3422,5.3401,5.3374,5.3369,5.3372,5.3339,5.3331,5.3333,5.3327,5.3302,5.33,5.33,5.3365,5.3281,5.3282,5.3282,5.3405,5.3408,5.3411,0,0,0,0,0,0,5.3434,5.3434,5.3425,5.3422,5.342,5.3377,5.3381,5.3372,5.3371,5.3333,5.3325,5.3341,5.3299,5.3298,5.3327,5.3363,5.3282,5.3283,5.3402,5.3406,5.341,5.3497,0,0,0,0,0,0,5.3434,5.3435,5.3455,5.3423,5.342,5.3452,5.3383,5.3373,5.3373,5.3365,5.3338,5.3331,5.3297,5.3326,5.3328,5.3363,5.3284,5.3398,5.3404,5.3408,5.349,5.3503,5.3514,0,0,0,0,0,5.3435,5.3482,5.3457,5.3457,5.3445,5.3454,5.3452,5.3412,5.3376,5.3397,5.3373,5.3332,5.3359,5.3329,5.3331,5.3367,5.3396,5.3402,5.3408,5.3485,5.3501,5.3514,0,0,0,0,0,0,5.352,5.3477,5.3449,5.3487,5.3475,5.344,5.3465,5.343,5.3428,5.342,5.3371,5.3366,5.3401,5.3387,5.3354,5.3421,5.3371,5.3378,5.3429,5.3443,5.3455,5.3457,5.3285,0,0,0,0,0,5.3543,5.3553,5.3516,5.3553,5.3548,5.3508,5.3511,5.348,5.3466,5.3461,5.3438,5.3427,5.3433,5.3438,5.3441,5.3489,5.3482,5.3514,5.3526,5.3536,5.3542,5.3566,5.358,5.3431,5.3431,5.3431,0,0,5.3592,5.3569,5.3579,5.357,5.3557,5.3569,5.3504,5.352,5.3529,5.3463,5.3488,5.3472,5.3456,5.3494,5.351,5.3484,5.3582,5.3544,5.3552,5.3553,5.3574,5.3588,5.3601,5.3436,5.3435,5.3434,0,0,5.3685,5.367,5.3698,5.3687,5.3668,5.3641,5.3649,5.3619,5.3606,5.363,5.3581,5.3591,5.3602,5.3593,5.359,5.3681,5.3644,5.3684,5.3746,5.377,5.3782,5.3792,5.3824,5.3836,5.3691,5.3691,5.3691,0,5.3747,5.3763,5.3718,5.3737,5.3735,5.3676,5.3705,5.3697,5.3681,5.3681,5.3652,5.3664,5.3649,5.3684,5.3707,5.3707,5.3714,5.3686,5.3784,5.3793,5.3802,5.3832,5.3845,5.3696,5.3695,5.3695,5.3694,0,5.384,5.3852,5.3878,5.3862,5.3863,5.3888,5.3848,5.3855,5.3825,5.3802,5.3827,5.3808,5.3806,5.3813,5.3784,5.3844,5.3828,5.3792,5.374,5.3822,5.3849,5.3861,5.3703,5.3701,5.37,5.3698,0,0,5.3984,5.3945,5.3955,5.3947,5.3923,5.3932,5.3954,5.3951,5.3958,5.395,5.3967,5.3978,5.3945,5.3941,5.3912,5.3933,5.4006,5.3894,5.3893,5.3915,5.4071,5.4097,5.4111,5.3982,5.3984,5.3986,5.4072,0,5.4071,5.4105,5.4067,5.4109,5.412,5.4065,5.4084,5.4072,5.4052,5.4058,5.4036,5.4044,5.4,5.3998,5.4017,5.3994,5.4037,5.3987,5.3998,5.3999,5.4002,5.4126,5.4153,5.4236,5.4083,5.4084,5.4086,0,5.4176,5.4172,5.4215,5.4188,5.4191,5.4209,5.4204,5.4211,5.4197,5.418,5.4177,5.4141,5.4162,5.4113,5.4141,5.4108,5.4111,5.4101,5.4103,5.4101,5.4046,5.4127,5.4261,5.4273,5.4102,5.4101,5.41,0,5.4276,5.4281,5.4308,5.4303,5.4273,5.4287,5.4275,5.4258,5.4259,5.4255,5.4255,5.4255,5.4254,5.4255,5.422,5.4188,5.4253,5.4201,5.424,5.4241,5.4255,5.4255,5.4391,5.426,5.4259,5.4259,5.4259,0,5.4376,5.4405,5.4352,5.4368,5.4399,5.4356,5.4388,5.4371,5.4356,5.4369,5.4322,5.4336,5.4289,5.4298,5.4272,5.4299,5.43,5.4287,5.428,5.4291,5.4292,5.4291,5.4284,5.4262,5.4262,5.4261,5.426,0,5.4492,5.4458,5.4483,5.4452,5.4445,5.447,5.4444,5.4458,5.4435,5.4452,5.4453,5.4417,5.4425,5.4391,5.4393,5.4375,5.4417,5.44,5.4421,5.4415,5.4456,5.4453,5.4596,5.4612,5.4471,5.4473,5.4474,0,5.4557,5.4578,5.4549,5.4554,5.4544,5.4553,5.4554,5.4512,5.4515,5.4501,5.4518,5.4521,5.4522,5.4538,5.4512,5.4514,5.4497,5.4547,5.4496,5.4507,5.4496,5.4495,5.4497,5.4557,5.4558,5.456,5.4561,0,5.4676,5.4659,5.4661,5.4658,5.4661,5.4657,5.4649,5.4656,5.4612,5.4618,5.4625,5.4626,5.4628,5.4633,5.4629,5.4618,5.4583,5.4577,5.4586,5.4597,5.4608,5.4602,5.4448,5.4574,5.4573,5.4572,5.4571,5.457,5.4768,5.4784,5.4766,5.4771,5.4761,5.4756,5.4768,5.4746,5.4751,5.4749,5.4725,5.4737,5.4723,5.4715,5.4707,5.4717,5.4693,5.4707,5.471,5.4714,5.472,5.4608,5.4716,5.4716,5.4715,5.4715,5.4715,0,5.4884,5.4871,5.4875,5.4867,5.4871,5.4837,5.4827,5.4833,5.4844,5.4834,5.4835,5.4844,5.4849,5.4824,5.4826,5.4838,5.4822,5.484,5.4838,5.4836,5.4742,5.4733,5.4853,5.4853,5.4853,5.4853,5.4853,5.4853,5.4945,5.497,5.4951,5.4971,5.4957,5.4968,5.4965,5.4961,5.4952,5.4963,5.4967,5.4951,5.4935,5.4935,5.4938,5.4931,5.4934,5.4957,5.4945,5.4856,5.4843,5.483,5.4822,5.4958,5.4958,5.5038,5.5039,5.5039]}]]